| time (UTC) | temp C | wind direction | speed KPH | gust KPH | rain 1hr cm | rain 24hr cm | rain mn cm | humidity % | barometer mb |
| 20260509210503 | 13 | 330 | 14.5 | 0.0 | 0.00 | 0.00 | 0.00 | 94 | 1016.0 |
| 20260509203502 | 13 | 320 | 9.7 | 0.0 | 0.00 | 0.00 | 0.00 | 94 | 1016.0 |
| 20260509200503 | 15 | 330 | 16.1 | 0.0 | 0.00 | 0.00 | 0.00 | 88 | 1016.0 |
| 20260509193503 | 15 | 330 | 16.1 | 0.0 | 0.00 | 0.00 | 0.00 | 88 | 1016.0 |
| 20260509190502 | 15 | 330 | 14.5 | 0.0 | 0.00 | 0.00 | 0.00 | 94 | 1016.0 |
| 20260509183502 | 15 | 320 | 11.3 | 0.0 | 0.00 | 0.00 | 0.00 | 94 | 1016.0 |
| 20260509180503 | 17 | 10 | 8.0 | 0.0 | 0.00 | 0.00 | 0.00 | 88 | 1015.0 |
| 20260509173503 | 17 | 20 | 9.7 | 0.0 | 0.00 | 0.00 | 0.00 | 83 | 1015.0 |
| 20260509170501 | 17 | 20 | 9.7 | 0.0 | 0.00 | 0.00 | 0.00 | 88 | 1015.0 |
| 20260509163503 | 17 | 30 | 11.3 | 0.0 | 0.00 | 0.00 | 0.00 | 83 | 1015.0 |
| 20260509160502 | 17 | 30 | 11.3 | 0.0 | 0.00 | 0.00 | 0.00 | 83 | 1015.0 |
| 20260509153502 | 17 | 20 | 11.3 | 0.0 | 0.00 | 0.00 | 0.00 | 78 | 1015.0 |
| 20260509150502 | 17 | 20 | 9.7 | 0.0 | 0.00 | 0.00 | 0.00 | 78 | |
| 20260509143502 | 17 | 40 | 9.7 | 0.0 | 0.00 | 0.00 | 0.00 | 78 | 1015.0 |
| 20260509140502 | 18 | 40 | 11.3 | 0.0 | 0.00 | 0.00 | 0.00 | 73 | 1015.0 |
| 20260509133502 | 17 | 40 | 11.3 | 0.0 | 0.00 | 0.00 | 0.00 | 78 | 1015.0 |
| 20260509130502 | 17 | 50 | 11.3 | 0.0 | 0.00 | 0.00 | 0.00 | 78 | 1016.0 |
| 20260509123502 | 17 | 80 | 14.5 | 0.0 | 0.00 | 0.00 | 0.00 | 78 | 1016.0 |
| 20260509120502 | 17 | 70 | 11.3 | 0.0 | 0.00 | 0.00 | 0.00 | 78 | 1016.0 |
| 20260509113502 | 17 | 80 | 12.9 | 0.0 | 0.00 | 0.00 | 0.00 | 78 | 1016.0 |
| 20260509110503 | 17 | 100 | 16.1 | 0.0 | 0.00 | 0.00 | 0.00 | 83 | 1016.0 |
| 20260509103502 | 17 | 100 | 12.9 | 0.0 | 0.00 | 0.00 | 0.00 | 83 | 1016.0 |
| 20260509100502 | 17 | 80 | 12.9 | 0.0 | 0.00 | 0.00 | 0.00 | 83 | 1017.0 |
| 20260509093503 | 17 | 70 | 9.7 | 0.0 | 0.00 | 0.00 | 0.00 | 83 | 1017.0 |
| 20260509090502 | 17 | 50 | 11.3 | 0.0 | 0.00 | 0.00 | 0.00 | 83 | 1017.0 |
| 20260509083503 | 17 | 30 | 14.5 | 0.0 | 0.00 | 0.00 | 0.00 | 88 | |
| 20260509080502 | 16 | 30 | 14.5 | 0.0 | 0.00 | 0.00 | 0.00 | 94 | 1017.0 |
| 20260509073503 | 16 | 30 | 14.5 | 0.0 | 0.00 | 0.00 | 0.00 | 94 | 1017.0 |
| 20260509070502 | 15 | 20 | 12.9 | 0.0 | 0.00 | 0.00 | 0.00 | ||
| 20260509063502 | 13 | 290 | 4.8 | 0.0 | 0.00 | 0.00 | 0.00 | 100 | 1017.0 |
| 20260509060502 | 13 | 310 | 8.0 | 0.0 | 0.00 | 0.00 | 0.00 | 94 | 1017.0 |
| 20260509053503 | 13 | 330 | 8.0 | 0.0 | 0.00 | 0.00 | 0.00 | 94 | 1017.0 |
| 20260509050503 | 13 | 320 | 9.7 | 0.0 | 0.00 | 0.00 | 0.00 | 94 | 1017.0 |
| 20260509043502 | 13 | 320 | 9.7 | 0.0 | 0.00 | 0.00 | 0.00 | 100 | 1016.0 |
| 20260509040501 | 13 | 310 | 8.0 | 0.0 | 0.00 | 0.00 | 0.00 | 94 | 1016.0 |
| 20260509033502 | 13 | 310 | 4.8 | 0.0 | 0.00 | 0.00 | 0.00 | 94 | 1016.0 |
| 20260509030502 | 13 | 280 | 4.8 | 0.0 | 0.00 | 0.00 | 0.00 | 94 | 1016.0 |
| 20260509023502 | 12 | 290 | 3.2 | 0.0 | 0.00 | 0.00 | 0.00 | 100 | 1016.0 |
| 20260509020502 | 12 | 120 | 1.6 | 0.0 | 0.00 | 0.00 | 0.00 | 94 | 1016.0 |
| 20260509013501 | 12 | 130 | 3.2 | 0.0 | 0.00 | 0.00 | 0.00 | 94 | 1016.0 |
| 20260509010502 | 12 | 1.6 | 0.0 | 0.00 | 0.00 | 0.00 | 100 | 1016.0 | |
| 20260509003502 | 12 | 320 | 4.8 | 0.0 | 0.00 | 0.00 | 0.00 | 100 | 1016.0 |
| 20260509000503 | 12 | 270 | 3.2 | 0.0 | 0.00 | 0.00 | 0.00 | 100 | 1016.0 |
| 20260508233502 | 12 | 310 | 3.2 | 0.0 | 0.00 | 0.00 | 0.00 | 100 | 1016.0 |
| 20260508230503 | 12 | 290 | 1.6 | 0.0 | 0.00 | 0.00 | 0.00 | 94 | 1017.0 |
| 20260508223502 | 13 | 290 | 1.6 | 0.0 | 0.00 | 0.00 | 0.00 | 94 | 1016.0 |
| 20260508220502 | 13 | 3.2 | 0.0 | 0.00 | 0.00 | 0.00 | 94 | 1017.0 | |
| 20260508213503 | 13 | 190 | 1.6 | 0.0 | 0.00 | 0.00 | 0.00 | 94 | 1016.0 |